Location: ?????????
(54.7630°N, 39.4991°E)
Time: 19:01:49
(UTC+00:00)

Spot 4 - Pass Details

Date: 14 April 2026
Orbit: 698 x 714 km, 98.2° (Epoch: 19 May)

Event Time Altitude Azimuth Distance (km) Brightness Sun altitude
Exits shadow 20:32:21 81° 208° (SSW) 715 3.6 -24.7°
Maximum altitude 20:32:31 84° 253° (WSW) 711 3.7 -24.7°
Drops below altitude 10° 20:37:18 10° 343° (NNW) 2,174 7.4 -24.9°
Sets 20:39:34 0° 345° (NNW) 3,097 8.5 -25.0°
